Location: Bathsheba
(13.2167°N, 59.5167°W)
Time: 23:30:28
(UTC+00:00)

Meteor 1-21 - Pass Details

Date: 18 September 2020
Orbit: 845 x 887 km, 81.2° (Epoch: 20 October)

Event Time Altitude Azimuth Distance (km) Brightness Sun altitude
Rises 23:30:01 0° 351° (N) 3,395 7.6 -23.5°
Reaches altitude 10° 23:32:26 10° 349° (N) 2,459 6.8 -24.1°
Maximum altitude 23:37:58 72° 266° (W) 887 4.4 -25.4°
Drops below altitude 10° 23:43:32 10° 182° (S) 2,467 6.5 -26.8°
Sets 23:45:58 0° 180° (S) 3,406 7.3 -27.3°
